Simultaneous Nadir Overpasses (SNOs) Predictions

Prediction of SNOs between METOP-B and NPP Satellite Orbit:

Table of predicted SNOs for the next 14.0 days since TLE Epoch: 9/9/2016
Index Date (METOP-B) Time (METOP-B) Lat,Lon (METOP-B) SZA (METOP-B ) Date (NPP) Time (NPP) Lat,Lon (NPP) SZA (NPP ) Distance(km) Time Diff (sec)
1 09/09/2016 16:50:03 72.75, -80.31 67.83 09/09/2016 16:48:54 72.75, -80.23 67.84 2.66 69
2 09/09/2016 17:40:45 -72.75, 87.03 112.16 09/09/2016 17:39:38 -72.76, 87.06 112.14 1.26 67
3 09/09/2016 18:31:24 72.78,-105.59 67.88 09/09/2016 18:30:24 72.76,-105.62 67.88 2.55 60
4 09/09/2016 19:22:06 -72.79, 61.76 112.10 09/09/2016 19:21:08 -72.77, 61.67 112.10 3.47 58
5 09/09/2016 20:12:46 72.76,-130.96 67.89 09/09/2016 20:11:54 72.77,-131.01 67.91 1.77 52
6 09/09/2016 21:03:28 -72.77, 36.38 112.09 09/09/2016 21:02:38 -72.78, 36.28 112.07 3.50 50
7 09/09/2016 21:54:08 72.74,-156.34 67.90 09/09/2016 21:53:23 72.72,-156.30 67.89 2.48 45
8 09/09/2016 22:44:50 -72.75, 11.00 112.08 09/09/2016 22:44:07 -72.73, 10.99 112.09 1.62 43
9 09/09/2016 23:35:30 72.72, 178.28 67.91 09/09/2016 23:34:53 72.73, 178.31 67.92 1.45 37
10 09/10/2016 00:26:11 -72.73, -14.38 112.07 09/10/2016 00:25:36 -72.74, -14.40 112.05 1.46 35
11 09/10/2016 01:16:50 72.75, 153.00 67.97 09/10/2016 01:16:22 72.74, 152.92 67.96 3.27 28
12 09/10/2016 02:07:33 -72.71, -39.76 112.06 09/10/2016 02:07:05 -72.70, -39.68 112.07 2.80 28
13 09/10/2016 02:58:12 72.73, 127.63 67.98 09/10/2016 02:57:52 72.75, 127.53 67.99 3.35 20
14 09/10/2016 03:48:55 -72.69, -65.13 112.05 09/10/2016 03:48:35 -72.71, -65.07 112.04 2.57 20
15 09/10/2016 04:39:34 72.72, 102.25 67.99 09/10/2016 04:39:21 72.70, 102.25 67.97 1.53 13
16 09/10/2016 05:30:16 -72.73, -90.41 112.00 09/10/2016 05:30:05 -72.71, -90.46 112.00 2.13 11
17 09/10/2016 06:20:56 72.70, 76.87 68.00 09/10/2016 06:20:51 72.71, 76.86 68.01 1.48 5
18 09/10/2016 07:11:38 -72.71,-115.79 111.99 09/10/2016 07:11:35 -72.72,-115.85 111.97 2.79 3
19 09/10/2016 08:02:18 72.68, 51.49 68.00 09/10/2016 08:02:20 72.67, 51.57 67.99 2.94 2
20 09/10/2016 08:53:00 -72.69,-141.17 111.98 09/10/2016 08:53:04 -72.68,-141.14 111.99 1.30 4
21 09/10/2016 09:43:40 72.66, 26.11 68.01 09/10/2016 09:43:50 72.67, 26.18 68.02 2.79 10
22 09/10/2016 10:34:22 -72.67,-166.54 111.97 09/10/2016 10:34:34 -72.69,-166.53 111.95 2.04 12
23 09/10/2016 11:25:01 72.69, 0.84 68.07 09/10/2016 11:25:20 72.68, 0.79 68.06 1.92 19
24 09/10/2016 12:15:43 -72.70, 168.18 111.91 09/10/2016 12:16:04 -72.69, 168.08 111.92 3.42 21
25 09/10/2016 13:06:23 72.67, -24.54 68.08 09/10/2016 13:06:50 72.69, -24.60 68.09 2.73 27
26 09/10/2016 13:57:05 -72.68, 142.80 111.90 09/10/2016 13:57:33 -72.65, 142.80 111.94 3.44 28
27 09/10/2016 14:47:45 72.65, -49.92 68.09 09/10/2016 14:48:19 72.65, -49.89 68.07 1.37 34
28 09/10/2016 15:38:27 -72.66, 117.43 111.89 09/10/2016 15:39:03 -72.66, 117.41 111.90 0.84 36
29 09/10/2016 16:29:07 72.64, -75.30 68.10 09/10/2016 16:29:49 72.65, -75.28 68.11 2.22 42
30 09/10/2016 17:19:49 -72.65, 92.05 111.89 09/10/2016 17:20:33 -72.67, 92.02 111.87 2.64 44
31 09/10/2016 18:10:28 72.67,-100.57 68.15 09/10/2016 18:11:19 72.66,-100.67 68.14 3.21 51
32 09/10/2016 19:01:11 -72.63, 66.67 111.88 09/10/2016 19:02:02 -72.62, 66.73 111.89 2.00 51
33 09/10/2016 19:51:50 72.65,-125.95 68.16 09/10/2016 19:52:48 72.62,-125.95 68.12 3.32 58
34 09/10/2016 20:42:33 -72.61, 41.29 111.87 09/10/2016 20:43:32 -72.63, 41.34 111.85 3.08 59
35 09/10/2016 21:33:12 72.63,-151.33 68.17 09/10/2016 21:34:18 72.63,-151.34 68.16 0.61 66
36 09/10/2016 22:23:54 -72.64, 16.02 111.81 09/10/2016 22:25:02 -72.64, 15.95 111.82 2.25 68
37 09/10/2016 23:14:34 72.61,-176.71 68.18 09/10/2016 23:15:48 72.63,-176.73 68.19 2.72 74
38 09/11/2016 00:05:17 -72.57, -9.46 111.85 09/11/2016 00:06:31 -72.60, -9.34 111.84 5.11 74
39 09/11/2016 00:56:02 72.29, 157.30 67.91 09/11/2016 00:57:12 72.34, 158.49 67.90 40.53 70
40 09/11/2016 01:46:45 -72.25, -35.45 112.12 09/11/2016 01:47:55 -72.30, -34.12 112.13 45.47 70
41 09/11/2016 02:37:29 72.01, 131.43 67.69 09/11/2016 02:38:36 72.04, 133.70 67.61 77.78 67
42 09/11/2016 03:28:12
